Flag for Falkland Islands

Past Weather in 51°41'29.2"S, 57°49'28.5"W, Falkland Islands — Yesterday and Last 2 Weeks

Currently: 41 °F. Overcast. (Weather station: Mount Pleasant Airport, Falkland Islands). See more current weather

Past Weather in 51°41'29.2"S, 57°49'28.5"W — Graph

°F

51°41'29.2"S, 57°49'28.5"W Temperature Yesterday

Maximum temperature yesterday: 41 °F (at 3:50 pm)
Minimum temperature yesterday: 34 °F (at 12:50 am)
Average temperature yesterday: 38 °F

High & Low Weather Summary for the Past Weeks

 TemperatureHumidityPressure
High46 °F (May 4, 12:20 pm)100% (May 6, 7:50 am)30.07 "Hg (May 6, 7:50 am)
Low32 °F (May 9, 11:50 pm)61% (May 3, 2:20 pm)29.03 "Hg (May 4, 8:50 pm)
Average38 °F88%29.68 "Hg
* Reported May 3 4:50 am — May 18 4:50 am, 51°41'29.2"S, 57°49'28.5"W. Weather by CustomWeather, © 2024

Note: Actual official high and low records may vary slightly from our data, if they occured in-between our weather recording intervals... More about our weather records

51°41'29.2"S, 57°49'28.5"W Weather History for the Previous 24 Hours

Scroll right to see more
 ConditionsComfort  
Time TempWeatherWind HumidityBarometerVisibility
4:50 am
Sat, May 18
41 °FOvercast.13 mph87%29.98 "HgN/A
3:50 am41 °FOvercast.16 mph93%29.98 "HgN/A
2:50 am41 °FOvercast.12 mph93%30.01 "HgN/A
1:50 am41 °FOvercast.9 mph93%30.01 "HgN/A
12:50 am41 °FPassing clouds.10 mph93%30.01 "HgN/A
11:50 pm
Fri, May 17
41 °FPassing clouds.15 mph93%30.04 "HgN/A
10:50 pm41 °FPassing clouds.15 mph93%30.04 "HgN/A
9:50 pm41 °FPassing clouds.14 mph93%30.04 "HgN/A
8:50 pm41 °FLow clouds.14 mph93%30.04 "HgN/A
7:50 pm41 °FPartly cloudy.15 mph93%30.04 "Hg4 mi
6:50 pm41 °FPassing clouds.15 mph93%30.04 "HgN/A
5:50 pm39 °FDrizzle. Partly sunny.16 mph93%30.01 "HgN/A
5:20 pm41 °FBroken clouds.17 mph87%30.01 "HgN/A
4:50 pm39 °FScattered clouds.18 mph93%30.01 "HgN/A
4:20 pm39 °FScattered clouds.17 mph93%30.01 "HgN/A
3:50 pm41 °FPassing clouds.20 mph81%30.01 "HgN/A
3:20 pm39 °FScattered clouds.16 mph87%30.01 "HgN/A
2:50 pm39 °FBroken clouds.15 mph87%30.01 "HgN/A
2:20 pm37 °FBroken clouds.10 mph93%30.01 "HgN/A
2:05 pm37 °FPartly sunny.12 mph93%30.04 "HgN/A
1:20 pm37 °FSprinkles. Broken clouds.13 mph87%30.04 "HgN/A
12:50 pm39 °FPartly sunny.12 mph75%30.04 "HgN/A
12:20 pm39 °FPartly sunny.10 mph75%30.04 "HgN/A
11:50 am39 °FScattered clouds.10 mph70%30.04 "HgN/A
11:20 am39 °FScattered clouds.10 mph75%30.04 "HgN/A
10:50 am36 °FPartly sunny.9 mph81%30.04 "HgN/A
10:20 am36 °FPartly sunny.9 mph81%30.04 "HgN/A
9:50 am36 °FPartly sunny.9 mph81%30.04 "HgN/A
8:50 am34 °FPassing clouds.7 mph81%30.04 "HgN/A
7:50 am36 °FOvercast.9 mph75%30.01 "HgN/A
6:50 am36 °FOvercast.7 mph75%30.01 "HgN/A
Weather by CustomWeather, © 2024

See weather overview